Weather in Novoyuryevo

Russia / Tambov Oblast     53°21′42″N   40°53′27″E
temp.,
°C
wind,
m/s
gust,
m/s
humid.,
%
clouds,
%
prec.,
mm/h
press.,
hPa
HPBL,
m
4 march, thu
thu400:00−2w61392100 0.3 1012581
03:00−2wsw61291100 0.3 1010556
06:00−2wsw81595100 0.2 1008615
09:00−1wsw81791100 0.4 1006561
12:00+1wsw9158796 0.0 1004935
15:000w8138796 0.1 10031046
18:000wsw61293100 0.1 1002760
21:000wsw51098100 0.4 1002535
5 march, fri
fri500:000w4998100 0.6 1001592
03:00−2w4897100 0.9 1002301
06:00−5n3496100 0.4 100494
09:00−6nnw249596 0.4 1006137
12:00−4nnw239082 0.0 1008259
15:00−4nw239057 0.0 1010254
18:00−8wnw229091 0.0 101021
21:00−8wnw239289 0.0 101321
6 march, sat
sat600:00−9nnw3390100 0.0 101437
03:00−11nnw3387100 0.0 101529
06:00−12nnw2389100 0.0 101522
09:00−12nnw239165 0.0 101676
12:00−8nw23870 0.0 1016230
15:00−7nw24910 0.0 1016261
18:00−11nw22952 0.0 101721
21:00−12nw129624 0.0 101821
7 march, sun
sun700:00−11wnw2396100 0.1 101829
03:00−13wsw339787 0.1 101728
06:00−12ssw499867 0.0 1014144
09:00−8sw8158184 0.0 1012608
12:00−4sw101774100 0.0 1008960
15:00−4sw121992100 0.5 10031391
18:00−3sw111992100 1.2 9991273
21:00−3wsw101795100 1.9 9981036
8 march, mon
mon800:00−6w51183100 0.9 999323
03:00−8wsw6148767 0.9 1000437
06:00−8wsw6149339 0.1 1000633
09:00−7w7128870 0.4 1002893
12:00−7w798899 0.1 1005878
15:00−7wnw688499 0.3 10071064
18:00−11wnw479061 0.1 100997
21:00−13wnw349130 0.1 101262